Powrót do katalogu

CZ-6A DEB

AktywnyPO
NORAD 60632·DEBRIS·🇨🇳 China

Wystrzelony Aug 6, 2024 z Taiyuan Satellite Launch Center

Loading…

Następne Przeloty (najbliższe 24 godziny)

TLE

ŚwieżeSource: Space-Track

Epoka: Sep 13, 2026, 23:25 UTC

1 60632U 24140AH  26256.97619290  .00000816  00000-0  18160-3 0  9996
2 60632  89.0390 264.1250 0105946 333.6586  25.9256 14.52588190111237

Śledź CZ-6A DEB w czasie rzeczywistym z AllMySat

Download on the App Store